Quincy, IL

12:45 PM CST on November 18, 2019 (GMT -0600)
Quincy Regional-Baldwin

Weather History for KUIN - September, 2019

Change the Weather History Date:

Sunday, September 22, 2019

  Actual Average Record
Temperature  
Mean Temperature 70 °F 64 °F  
Max Temperature 75 °F 75 °F 96 °F (1937)
Min Temperature 66 °F 53 °F 34 °F (1995)
Degree Days  
Heating Degree Days 0 4  
Month to date heating degree days 0 40  
Since 1 July heating degree days 2 45  
Cooling Degree Days 6 3  
Month to date cooling degree days 206 107  
Year to date cooling degree days 1263 1060  
Growing Degree Days 20 (Base 50)    
Moisture  
Dew Point 67 °F    
Average Humidity 89    
Maximum Humidity 96    
Minimum Humidity 71    
Precipitation  
Precipitation 1.01 in 0.11 in 2.65 in (1970)
Month to date precipitation 2.65 2.41  
Year to date precipitation 33.68 28.16  
Sea Level Pressure  
Sea Level Pressure 29.90 in    
Wind  
Wind Speed 10 mph ()    
Max Wind Speed 24 mph    
Max Gust Speed 37 mph    
Visibility 7.1 miles    
Events Fog , Rain , Thunderstorm    
T = Trace of Precipitation, MM = Missing Value Source: Averaged Metar Reports

Daily Weather History Graph

Daily Weather History Graph

Search for Another Location

Airport or City:

Astronomy

Sep. 22, 2019 Rise Set
Actual Time 6:52 AM CDT 7:02 PM CDT
Civil Twilight 6:25 AM CDT 7:29 PM CDT
Nautical Twilight 5:53 AM CDT 8:00 PM CDT
Astronomical Twilight 5:21 AM CDT 8:32 PM CDT
Moon No Moon Rise 2:57 PM CDT (9/22)
Length of Visible Light 13h 04m
Length of Day
12h 10m
Last Quarter, 44% of the Moon is Illuminated
Sep 22
Last Quarter
Sep 28
New
Oct 5
First Quarter
Oct 13
Full
Oct 21
Last Quarter

Hourly Weather History & Observations

Time (CDT) Temp. Dew Point Humidity Pressure Visibility Wind Dir Wind Speed Gust Speed Precip Events Conditions
12:54 AM 75.0 °F 68.0 °F 79% 29.96 in 10.0 mi South 11.5 mph - N/A   Scattered Clouds
1:54 AM 73.9 °F 68.0 °F 82% 29.94 in 10.0 mi South 12.7 mph 21.9 mph N/A   Mostly Cloudy
2:54 AM 73.9 °F 66.0 °F 76% 29.94 in 10.0 mi South 11.5 mph - N/A   Overcast
3:54 AM 73.9 °F 64.9 °F 73% 29.92 in 10.0 mi South 16.1 mph 27.6 mph N/A   Clear
4:54 AM 73.9 °F 64.0 °F 71% 29.91 in 10.0 mi South 16.1 mph 32.2 mph N/A   Mostly Cloudy
5:54 AM 73.0 °F 64.0 °F 73% 29.90 in 10.0 mi South 13.8 mph - N/A   Partly Cloudy
6:54 AM 73.0 °F 64.0 °F 73% 29.90 in 10.0 mi SSW 15.0 mph - N/A   Partly Cloudy
7:54 AM 72.0 °F 64.0 °F 76% 29.91 in 10.0 mi SSW 12.7 mph - N/A   Overcast
8:54 AM 71.1 °F 64.9 °F 81% 29.92 in 2.5 mi SW 8.1 mph - 0.03 in Rain Heavy Rain
9:08 AM 70.0 °F 66.0 °F 87% 29.93 in 6.0 mi SW 9.2 mph - 0.02 in Rain Light Rain
9:47 AM 69.1 °F 66.0 °F 90% 29.93 in 10.0 mi WSW 4.6 mph - 0.02 in Rain Light Rain
9:54 AM 69.1 °F 66.0 °F 90% 29.92 in 10.0 mi SW 6.9 mph - 0.02 in Rain Light Rain
10:37 AM 69.1 °F 66.9 °F 93% 29.94 in 1.8 mi SW 5.8 mph - 0.05 in Rain Heavy Rain
10:46 AM 69.1 °F 66.9 °F 93% 29.93 in 3.0 mi SW 4.6 mph - 0.06 in Rain Light Rain
10:54 AM 69.1 °F 66.9 °F 93% 29.92 in 6.0 mi WSW 4.6 mph - 0.07 in Rain Light Rain
11:00 AM 69.1 °F 66.9 °F 93% 29.93 in 4.0 mi WSW 3.5 mph - 0.00 in Rain Light Rain
11:14 AM 69.1 °F 66.9 °F 93% 29.93 in 2.5 mi SSW 4.6 mph - 0.03 in Rain Rain
11:21 AM 69.1 °F 66.9 °F 93% 29.95 in 3.0 mi SSW 8.1 mph - 0.05 in Rain Rain
11:24 AM 69.1 °F 66.9 °F 93% 29.94 in 1.5 mi SSW 6.9 mph - 0.12 in Rain Heavy Rain
11:38 AM 69.1 °F 66.9 °F 93% 29.93 in 3.0 mi SSW 5.8 mph - 0.17 in Rain Light Rain
11:54 AM 69.1 °F 66.9 °F 93% 29.91 in 4.0 mi South 5.8 mph - 0.19 in Rain Rain
12:28 PM 69.1 °F 66.9 °F 93% 29.90 in 5.0 mi South 6.9 mph - 0.05 in Rain Light Rain
12:54 PM 69.1 °F 66.9 °F 93% 29.86 in 10.0 mi South 6.9 mph - 0.06 in Rain Light Rain
1:54 PM 71.1 °F 68.0 °F 90% 29.82 in 10.0 mi South 16.1 mph 27.6 mph 0.00 in   Overcast
2:54 PM 72.0 °F 68.0 °F 87% 29.81 in 10.0 mi SSW 18.4 mph 32.2 mph 0.00 in   Overcast
3:54 PM 73.9 °F 68.0 °F 82% 29.82 in 10.0 mi SW 17.3 mph 28.8 mph N/A   Overcast
4:16 PM 73.9 °F 68.0 °F 82% 29.85 in 10.0 mi SW 15.0 mph 24.2 mph N/A   Partly Cloudy
4:51 PM 73.4 °F 68.0 °F 83% 29.86 in 10.0 mi SW 16.1 mph 24.2 mph N/A   Overcast
4:54 PM 73.0 °F 68.0 °F 84% 29.84 in 10.0 mi SW 12.7 mph 24.2 mph N/A   Overcast
5:54 PM 73.0 °F 68.0 °F 84% 29.85 in 10.0 mi SW 12.7 mph 21.9 mph N/A   Overcast
6:34 PM 71.1 °F 69.1 °F 93% 29.88 in 2.0 mi SW 10.4 mph - 0.00 in Rain Light Rain
6:54 PM 71.1 °F 69.1 °F 93% 29.86 in 2.0 mi SW 8.1 mph - 0.01 in Rain Light Rain
7:05 PM 71.1 °F 69.1 °F 93% 29.87 in 6.0 mi SW 9.2 mph - 0.00 in   Overcast
7:31 PM 71.1 °F 69.1 °F 93% 29.88 in 8.0 mi SW 11.5 mph - 0.00 in   Overcast
7:54 PM 71.1 °F 69.1 °F 93% 29.87 in 9.0 mi SW 12.7 mph - 0.00 in Rain Light Rain
8:05 PM 71.1 °F 69.1 °F 93% 29.89 in 10.0 mi SW 12.7 mph - 0.00 in   Overcast
8:54 PM 71.1 °F 69.1 °F 93% 29.88 in 10.0 mi WSW 6.9 mph - 0.00 in   Overcast
9:54 PM 71.1 °F 69.1 °F 93% 29.89 in 10.0 mi SSW 4.6 mph - N/A   Mostly Cloudy
10:05 PM 71.1 °F 69.1 °F 93% 29.90 in 7.0 mi South 3.5 mph - 0.01 in Rain Light Rain
10:12 PM 71.1 °F 69.1 °F 93% 29.92 in 1.5 mi West 8.1 mph - 0.15 in Rain Heavy Rain
10:17 PM 71.1 °F 69.1 °F 93% 29.92 in 0.5 mi West 6.9 mph - 0.41 in Fog , Rain Heavy Rain
10:19 PM 71.1 °F 69.1 °F 93% 29.92 in 0.5 mi West 8.1 mph - 0.50 in Fog , Rain , Thunderstorm Heavy Thunderstorms and Rain
10:28 PM 70.0 °F 68.0 °F 93% 29.93 in 1.0 mi NNW 12.7 mph 18.4 mph 0.62 in Rain , Thunderstorm Thunderstorms and Rain
10:32 PM 69.1 °F 66.9 °F 93% 29.93 in 3.0 mi NNW 10.4 mph - 0.62 in Rain , Thunderstorm Light Thunderstorms and Rain
10:34 PM 69.1 °F 66.9 °F 93% 29.93 in 7.0 mi NNW 12.7 mph - 0.62 in Rain Light Rain
10:42 PM 69.1 °F 68.0 °F 96% 29.93 in 10.0 mi NW 10.4 mph - 0.62 in   Overcast
10:49 PM 69.8 °F 66.2 °F 88% 29.93 in 10.0 mi NW 10.4 mph - 0.62 in   Overcast
10:54 PM 69.1 °F 66.9 °F 93% 29.92 in 10.0 mi NW 9.2 mph - 0.62 in   Overcast
11:21 PM 68.0 °F 66.0 °F 93% 29.94 in 10.0 mi NW 15.0 mph 19.6 mph 0.01 in   Overcast
11:40 PM 68.0 °F 66.0 °F 93% 29.95 in 10.0 mi NW 10.4 mph - 0.01 in   Overcast
11:54 PM 66.9 °F 64.9 °F 93% 29.94 in 10.0 mi NW 12.7 mph - 0.01 in   Overcast